MDT,Max TemperatureF,Mean TemperatureF,Min TemperatureF,Max Dew PointF,MeanDew PointF,Min DewpointF,Max Humidity, Mean Humidity, Min Humidity, Max Sea Level PressureIn, Mean Sea Level PressureIn, Min Sea Level PressureIn, Max VisibilityMiles, Mean VisibilityMiles, Min VisibilityMiles, Max Wind SpeedMPH, Mean Wind SpeedMPH, Max Gust SpeedMPH,PrecipitationIn, CloudCover, Events, WindDirDegrees
2013-3-1,62,43,24,10,5,-8,31,20,12,30.35,30.30,30.26,10,10,9,22,9,30,0.00,0,,353
2013-3-2,66,48,30,21,12,7,51,23,13,30.43,30.32,30.22,10,10,10,10,5,20,0.00,0,,50
2013-3-3,77,54,32,21,10,-2,35,18,5,30.22,30.05,29.91,10,9,3,20,7,25,0.00,0,,191
2013-3-4,75,62,48,25,17,9,33,19,9,30.10,29.93,29.81,10,9,2,31,10,40,0.00,4,,200
2013-3-5,62,48,35,23,19,12,56,33,19,30.37,30.25,30.11,10,10,10,18,8,23,0.00,0,,178
2013-3-6,73,57,41,32,21,16,47,29,15,30.25,30.13,30.02,10,10,10,13,8,21,0.00,0,,166
2013-3-7,77,59,41,28,20,14,40,24,10,30.09,30.01,29.94,10,10,10,18,8,26,0.00,1,Rain,194
2013-3-8,68,60,51,48,30,19,77,36,19,30.02,29.93,29.84,10,10,5,25,12,34,0.01,5,Rain,179
2013-3-9,55,46,37,36,22,14,60,39,21,29.98,29.92,29.85,10,9,1,24,11,37,0.00,4,,258
2013-3-10,55,42,28,25,20,18,69,44,24,30.19,30.10,29.98,10,10,9,13,6,17,0.00,3,,234
2013-3-11,62,42,23,21,15,9,64,34,15,30.22,30.14,30.05,10,10,10,10,5,18,0.00,0,,69
2013-3-12,69,48,28,19,14,9,43,23,12,30.27,30.17,30.08,10,10,10,15,6,17,0.00,0,,153
2013-3-13,73,52,32,19,15,7,44,24,10,30.39,30.30,30.23,10,10,10,13,6,,0.00,0,,13
2013-3-14,77,56,35,16,10,7,33,16,8,30.35,30.26,30.19,10,10,10,12,4,16,0.00,0,Thunderstorm,344
2013-3-15,82,60,37,14,10,7,36,15,7,30.21,30.11,29.98,10,10,10,13,5,18,0.04,0,Rain,160
2013-3-16,82,63,44,12,8,5,20,11,6,29.98,29.90,29.78,10,10,10,21,7,29,0.00,0,Rain,203
2013-3-17,75,58,41,27,16,7,33,17,10,29.93,29.85,29.75,10,9,2,31,7,67,0.00,0,,268
2013-3-18,73,58,42,16,8,0,29,14,6,30.05,29.98,29.91,10,10,10,14,5,23,0.00,0,,171
2013-3-19,73,58,44,19,11,3,23,15,10,30.14,30.03,29.98,10,10,10,15,7,28,0.00,1,,216
2013-3-20,68,55,42,28,23,16,43,29,19,30.27,30.13,29.93,10,10,10,20,9,26,0.00,0,,166
2013-3-21,75,64,53,25,23,19,31,22,12,29.92,29.80,29.69,10,10,9,15,9,21,0.00,0,,189
2013-3-22,75,63,51,28,22,14,33,21,12,29.86,29.77,29.69,10,10,2,25,8,33,0.00,2,,211
2013-3-23,71,58,42,23,4,-17,37,15,4,30.04,29.84,29.74,10,9,4,34,11,45,0.00,1,,300
2013-3-24,57,40,24,0,-6,-18,31,14,8,30.18,30.05,29.92,10,10,10,15,9,18,0.00,0,,173
2013-3-25,59,42,24,5,0,-8,31,17,10,30.21,30.13,30.00,10,10,10,18,8,23,0.00,0,,185
2013-3-26,66,46,26,12,8,0,37,21,11,30.27,30.17,30.05,10,10,10,17,7,29,0.00,0,,172
2013-3-27,75,56,37,18,12,7,30,17,9,30.13,30.07,30.02,10,10,10,15,8,20,0.00,0,,202
2013-3-28,78,61,44,21,16,10,25,17,11,30.16,30.09,30.04,10,10,10,14,5,20,0.00,0,,210
2013-3-29,78,62,46,19,16,10,29,17,9,30.18,30.11,30.06,10,10,10,20,4,29,0.00,0,,7
2013-3-30,78,60,42,23,14,10,27,16,8,30.16,30.09,30.02,10,10,10,24,4,33,0.00,0,,261
2013-3-31,77,62,48,28,24,19,37,21,14,30.11,30.05,29.99,10,10,10,12,7,21,0.00,0,,151